Tampa Macdill AFB, FL

12:38 PM EST on December 05, 2019 (GMT -0500)
MacDill Air Force Base

Weather History for KMCF - October, 2019

Change the Weather History Date:

Tuesday, October 15, 2019

  Actual Average Record
Temperature  
Mean Temperature 82 °F -  
Max Temperature 89 °F 82 °F 93 °F (2017)
Min Temperature 75 °F 66 °F 59 °F (2004)
Cooling Degree Days 17    
Growing Degree Days 32 (Base 50)    
Moisture  
Dew Point 70 °F    
Average Humidity 70    
Maximum Humidity 84    
Minimum Humidity 48    
Precipitation  
Precipitation 0.00 in - - ()
Sea Level Pressure  
Sea Level Pressure 30.02 in    
Wind  
Wind Speed 6 mph (SE)    
Max Wind Speed 9 mph    
Max Gust Speed -    
Visibility 10 miles    
Events      
Averages and records for this station are not official NWS values.
T = Trace of Precipitation, MM = Missing Value Source: NWS Daily Summary

Daily Weather History Graph

Daily Weather History Graph

Search for Another Location

Airport or City:

Astronomy

Oct. 15, 2019 Rise Set
Actual Time 7:30 AM EDT 7:01 PM EDT
Civil Twilight 7:06 AM EDT 7:24 PM EDT
Nautical Twilight 6:39 AM EDT 7:51 PM EDT
Astronomical Twilight 6:12 AM EDT 8:19 PM EDT
Moon 8:26 PM EDT (10/15) 8:55 AM EDT (10/15)
Length of Visible Light 12h 18m
Length of Day
11h 30m
Full, 97% of the Moon is Illuminated
Oct 15
Full
Oct 21
Last Quarter
Oct 27
New
Nov 4
First Quarter
Nov 12
Full

Hourly Weather History & Observations

Time (EDT) Temp. Heat Index Dew Point Humidity Pressure Visibility Wind Dir Wind Speed Gust Speed Precip Events Conditions
12:56 AM 75.6 °F - 70.0 °F 83% 30.09 in 10.0 mi SE 6.9 mph - N/A   Clear
1:56 AM 75.7 °F - 70.2 °F 83% 30.08 in 10.0 mi SSE 6.9 mph - N/A   Clear
2:56 AM 75.7 °F - 70.5 °F 84% 30.06 in 10.0 mi SE 8.1 mph - N/A   Clear
3:56 AM 75.6 °F - 70.3 °F 84% 30.05 in 10.0 mi SSE 9.2 mph - N/A   Clear
4:56 AM 75.7 °F - 70.5 °F 84% 30.04 in 10.0 mi SSE 8.1 mph - N/A   Clear
5:56 AM 75.6 °F - 70.3 °F 84% 30.05 in 10.0 mi SSE 8.1 mph - N/A   Clear
6:56 AM 75.4 °F - 70.2 °F 84% 30.06 in 10.0 mi SE 4.6 mph - N/A   Clear
7:56 AM 75.4 °F - 70.2 °F 84% 30.06 in 10.0 mi ESE 3.5 mph - N/A   Clear
8:56 AM 77.4 °F - 70.3 °F 79% 30.07 in 10.0 mi ESE 5.8 mph - N/A   Partly Cloudy
9:56 AM 79.3 °F - 70.7 °F 75% 30.07 in 10.0 mi SE 8.1 mph - N/A   Clear
10:56 AM 81.0 °F 84.6 °F 70.5 °F 70% 30.07 in 10.0 mi ESE 8.1 mph - N/A   Scattered Clouds
11:56 AM 83.3 °F 86.9 °F 69.3 °F 62% 30.07 in 10.0 mi SE 4.6 mph - N/A   Partly Cloudy
12:56 PM 84.4 °F 87.6 °F 68.4 °F 58% 30.04 in 10.0 mi Calm Calm - N/A   Partly Cloudy
1:38 PM 84.2 °F 87.3 °F 68.0 °F 58% 30.03 in 10.0 mi East 5.8 mph - N/A   Light Drizzle
1:41 PM 86.0 °F 89.4 °F 68.0 °F 55% 30.03 in 10.0 mi ESE 4.6 mph - N/A   Scattered Clouds
1:56 PM 85.6 °F 88.8 °F 67.6 °F 55% 30.02 in 10.0 mi Calm Calm - 0.00 in   Mostly Cloudy
2:01 PM 86.0 °F 89.4 °F 68.0 °F 55% 30.02 in 10.0 mi East 8.1 mph - N/A   Light Drizzle
2:10 PM 86.0 °F 88.2 °F 66.2 °F 51% 30.01 in 10.0 mi NNE 8.1 mph - N/A   Mostly Cloudy
2:56 PM 87.6 °F 90.1 °F 66.0 °F 49% 29.99 in 10.0 mi East 4.6 mph - 0.00 in   Mostly Cloudy
3:56 PM 89.2 °F 92.4 °F 66.9 °F 48% 29.97 in 10.0 mi SSE 3.5 mph - N/A   Mostly Cloudy
4:56 PM 87.6 °F 90.4 °F 67.1 °F 50% 29.96 in 10.0 mi WSW 4.6 mph - N/A   Partly Cloudy
5:56 PM 83.5 °F 88.8 °F 71.8 °F 68% 29.95 in 10.0 mi SW 4.6 mph - N/A   Clear
6:56 PM 81.7 °F 84.9 °F 69.1 °F 65% 29.96 in 10.0 mi SW 4.6 mph - N/A   Clear
7:56 PM 80.8 °F 83.9 °F 69.3 °F 68% 29.97 in 10.0 mi Calm Calm - N/A   Clear
8:56 PM 80.1 °F 83.4 °F 70.9 °F 73% 29.98 in 10.0 mi Calm Calm - N/A   Partly Cloudy
9:56 PM 79.9 °F - 72.3 °F 78% 29.98 in 10.0 mi SE 3.5 mph - N/A   Scattered Clouds
10:56 PM 80.2 °F 84.7 °F 73.4 °F 80% 29.98 in 10.0 mi South 4.6 mph - N/A   Partly Cloudy
11:56 PM 79.7 °F - 72.9 °F 80% 29.98 in 10.0 mi SSE 3.5 mph - N/A   Clear